KE0SWK-13 Weather Reports


Display with metric or nautical units.
time (UTC)temp
F
wind
direction
speed
MPH
gust
MPH
rain 1hr
in
rain 24hr
in
rain mn
in
humidity
%
barometer
mb
20260507143532 66 104 2.0 4.0 0.00 0.00 0.00 44 1019.6
20260507142519 63 151 3.0 5.0 0.00 0.00 0.00 48 1019.6
20260507141525 65 32 2.0 4.0 0.00 0.00 0.00 46 1019.7
20260507140519 64 25 2.0 3.0 0.00 0.00 0.00 47 1019.9
20260507135521 63 118 2.0 4.0 0.00 0.00 0.00 48 1019.9
20260507134527 62 4 1.0 3.0 0.00 0.00 0.00 50 1019.9
20260507133524 61 130 2.0 2.0 0.00 0.00 0.00 50 1020.1
20260507132522 60 290 1.0 3.0 0.00 0.00 0.00 53 1020.2
20260507131543 58 230 1.0 2.0 0.00 0.00 0.00 55 1020.2
20260507130530 57 159 1.0 2.0 0.00 0.00 0.00 58 1020.2
20260507125520 56 85 1.0 2.0 0.00 0.00 0.00 62 1020.2
20260507124531 54 85 0.0 1.0 0.00 0.00 0.00 65 1020.1
20260507123520 52 203 0.0 2.0 0.00 0.00 0.00 69 1020.1
20260507122605 50 270 0.0 1.0 0.00 0.00 0.00 74 1020.1
20260507121533 47 0.0 0.0 0.00 0.00 0.00 79 1020.0
20260507120542 43 0.0 0.0 0.00 0.00 0.00 86 1019.8
20260507115527 41 0.0 0.0 0.00 0.00 0.00 90 1019.7
20260507114540 40 0.0 0.0 0.00 0.00 0.00 92 1019.5
20260507113543 38 0.0 0.0 0.00 0.00 0.00 93 1019.5
20260507112528 38 0.0 0.0 0.00 0.00 0.00 93 1019.4
20260507111526 39 0.0 0.0 0.00 0.00 0.00 93 1019.4
20260507110524 39 0.0 0.0 0.00 0.00 0.00 93 1019.4
20260507105523 39 0.0 0.0 0.00 0.00 0.00 93 1019.5
20260507104519 39 0.0 0.0 0.00 0.00 0.00 92 1019.5
20260507103521 39 0.0 0.0 0.00 0.00 0.00 90 1019.6
20260507102531 40 0.0 0.0 0.00 0.00 0.00 90 1019.6
20260507101541 40 0.0 0.0 0.00 0.00 0.00 90 1019.7
20260507100527 40 0.0 0.0 0.00 0.00 0.00 90 1019.7
20260507095534 40 0.0 0.0 0.00 0.00 0.00 90 1019.7
20260507094524 40 0.0 0.0 0.00 0.01 0.00 89 1019.8
20260507093532 40 0.0 0.0 0.00 0.01 0.00 87 1019.7
20260507092521 41 0.0 0.0 0.00 0.02 0.00 87 1019.7
20260507091524 40 0.0 0.0 0.00 0.02 0.00 86 1019.6
20260507090558 41 0.0 0.0 0.00 0.02 0.00 86 1019.5
20260507085520 42 0.0 0.0 0.00 0.02 0.00 84 1019.6
20260507084606 42 0.0 0.0 0.00 0.02 0.00 82 1019.4
20260507083525 43 0.0 0.0 0.00 0.02 0.00 79 1019.5
20260507082542 45 0.0 0.0 0.00 0.02 0.00 76 1019.4
20260507081522 45 0.0 0.0 0.00 0.02 0.00 75 1019.5
20260507080530 45 0.0 0.0 0.00 0.02 0.00 76 1019.5
20260507075559 44 0.0 0.0 0.00 0.02 0.00 83 1019.5
20260507074549 44 0.0 0.0 0.00 0.02 0.00 82 1019.6
20260507073535 45 0.0 0.0 0.00 0.02 0.00 80 1019.7
20260507072525 45 0.0 0.0 0.00 0.02 0.00 82 1019.8
20260507071533 44 0.0 0.0 0.00 0.02 0.00 82 1019.9
20260507070522 43 0.0 0.0 0.00 0.02 0.00 87 1020.0
20260507065526 42 0.0 0.0 0.00 0.02 0.00 93 1020.1
20260507064540 40 0.0 0.0 0.00 0.02 0.00 94 1020.3
20260507063522 40 0.0 0.0 0.00 0.02 0.00 94 1020.2
20260507062548 40 0.0 0.0 0.00 0.02 0.00 94 1020.3
20260507061525 41 0.0 0.0 0.00 0.02 0.00 93 1020.3
20260507060523 41 0.0 0.0 0.00 0.02 0.00 93 1020.3
20260507055522 41 0.0 0.0 0.00 0.02 0.00 93 1020.3
20260507054519 40 0.0 0.0 0.00 0.02 0.00 91 1020.3
20260507053520 40 0.0 0.0 0.00 0.02 0.00 91 1020.1
20260507052608 41 0.0 0.0 0.00 0.02 0.00 91 1020.3
20260507051541 41 0.0 0.0 0.00 0.02 0.00 89 1020.2
20260507050526 41 0.0 0.0 0.00 0.02 0.00 88 1020.1
20260507045534 42 0.0 0.0 0.00 0.02 0.02 87 1020.3
20260507044523 41 0.0 0.0 0.00 0.02 0.02 85 1020.3
20260507043528 43 0.0 0.0 0.00 0.02 0.02 84 1020.5
20260507042521 42 0.0 0.0 0.00 0.02 0.02 83 1020.4
20260507041524 43 0.0 0.0 0.00 0.02 0.02 85 1020.4
20260507040530 43 0.0 0.0 0.00 0.02 0.02 87 1020.3
20260507035519 43 0.0 0.0 0.00 0.02 0.02 88 1020.3
20260507034525 43 0.0 0.0 0.00 0.02 0.02 84 1020.3
20260507033526 44 0.0 0.0 0.00 0.02 0.02 80 1020.3
20260507032521 45 0.0 0.0 0.00 0.02 0.02 78 1020.3
20260507031522 44 0.0 0.0 0.00 0.02 0.02 78 1020.3
20260507030529 44 0.0 0.0 0.00 0.02 0.02 77 1020.3
20260507025518 44 0.0 0.0 0.00 0.02 0.02 74 1020.3
20260507024528 45 0.0 0.0 0.00 0.02 0.02 71 1020.2
20260507023535 47 0.0 0.0 0.00 0.02 0.02 71 1020.0
20260507022604 46 0.0 0.0 0.00 0.02 0.02 70 1020.0
20260507021532 47 0.0 0.0 0.00 0.02 0.02 69 1019.7
20260507015525 49 0.0 0.0 0.00 0.02 0.02 63 1019.5
20260507014559 50 0.0 0.0 0.00 0.02 0.02 59 1019.4
20260507013541 51 0.0 0.0 0.00 0.02 0.02 55 1019.3
20260507012527 52 0.0 0.0 0.00 0.02 0.02 52 1019.2
20260507011525 53 0.0 0.0 0.00 0.02 0.02 49 1019.2
20260507010523 54 0.0 0.0 0.00 0.02 0.02 47 1019.1
20260507005522 56 0.0 0.0 0.00 0.02 0.02 42 1019.1
20260507004530 56 279 1.0 3.0 0.00 0.02 0.02 40 1019.1
20260507003519 56 316 0.0 3.0 0.00 0.02 0.02 39 1019.0
20260507002530 57 287 2.0 4.0 0.00 0.02 0.02 38 1019.0
20260507001520 57 282 1.0 4.0 0.00 0.02 0.02 38 1018.9
20260507000525 58 291 4.0 6.0 0.00 0.02 0.02 37 1018.9
20260506235533 58 292 2.0 4.0 0.00 0.03 0.02 36 1018.9
20260506234522 59 272 5.0 7.0 0.00 0.04 0.02 35 1018.9
20260506233527 61 298 5.0 8.0 0.00 0.05 0.02 32 1018.9
20260506232519 63 292 4.0 7.0 0.00 0.06 0.02 32 1018.8
20260506231523 63 247 5.0 7.0 0.00 0.07 0.02 32 1019.0
20260506230529 62 241 5.0 9.0 0.00 0.07 0.02 32 1019.0
20260506225525 62 276 5.0 7.0 0.00 0.08 0.02 33 1019.0
20260506224526 62 301 6.0 10.0 0.00 0.10 0.02 32 1018.9
20260506223542 62 245 5.0 8.0 0.00 0.10 0.02 32 1018.9
20260506222519 63 307 7.0 11.0 0.00 0.11 0.02 32 1018.9
20260506221540 62 237 3.0 6.0 0.00 0.12 0.02 34 1018.9
20260506220528 63 272 6.0 7.0 0.00 0.14 0.02 34 1019.0
20260506215521 63 232 4.0 7.0 0.00 0.17 0.02 34 1019.0
20260506214527 63 251 6.0 8.0 0.00 0.18 0.02 34 1019.1
20260506213533 62 250 3.0 5.0 0.00 0.18 0.02 35 1019.1
20260506212523 62 201 5.0 7.0 0.00 0.19 0.02 33 1019.1
20260506211550 63 268 8.0 11.0 0.00 0.19 0.02 32 1019.2
20260506210519 62 274 6.0 9.0 0.00 0.19 0.02 34 1019.3
20260506205527 63 69 5.0 9.0 0.00 0.21 0.02 34 1019.5
20260506204531 63 310 8.0 12.0 0.00 0.22 0.02 33 1019.4
20260506203520 63 259 5.0 8.0 0.00 0.24 0.02 32 1019.4
20260506202526 63 270 8.0 11.0 0.00 0.24 0.02 33 1019.6
20260506201521 64 240 7.0 9.0 0.00 0.25 0.02 31 1019.7
20260506200522 64 299 4.0 6.0 0.00 0.28 0.02 35 1019.7
20260506195519 65 256 7.0 10.0 0.00 0.30 0.02 33 1019.7
20260506194527 64 131 3.0 5.0 0.00 0.30 0.02 39 1019.9
20260506193523 65 268 6.0 11.0 0.00 0.30 0.02 34 1019.9
20260506192524 65 253 6.0 9.0 0.00 0.30 0.02 33 1020.0
20260506191518 64 268 4.0 7.0 0.00 0.30 0.02 34 1020.1
20260506190525 64 268 7.0 9.0 0.00 0.31 0.02 33 1020.2
20260506185531 65 267 3.0 5.0 0.00 0.31 0.02 36 1020.1
20260506184520 65 286 3.0 6.0 0.00 0.31 0.02 36 1020.2
20260506183526 64 260 5.0 7.0 0.00 0.32 0.02 36 1020.2
20260506182534 65 288 6.0 8.0 0.00 0.32 0.02 34 1020.4
20260506181544 65 279 6.0 8.0 0.00 0.32 0.02 35 1020.6
20260506180528 65 276 7.0 12.0 0.00 0.33 0.02 35 1020.6
20260506175521 64 141 4.0 7.0 0.00 0.33 0.02 37 1020.7
20260506174524 64 249 5.0 10.0 0.00 0.33 0.02 35 1020.9
20260506173530 64 257 8.0 12.0 0.00 0.34 0.02 35 1020.9
20260506172519 63 283 4.0 7.0 0.00 0.34 0.02 38 1020.9
20260506171525 64 272 5.0 12.0 0.00 0.34 0.02 39 1020.9
20260506170523 63 247 6.0 9.0 0.00 0.34 0.02 39 1020.7
20260506165520 62 179 7.0 10.0 0.00 0.34 0.02 39 1020.5
20260506164521 62 271 5.0 7.0 0.00 0.34 0.02 38 1020.3
20260506163529 62 8 5.0 6.0 0.00 0.35 0.02 37 1020.2
20260506162522 63 248 5.0 7.0 0.00 0.35 0.02 41 1020.4
20260506161531 61 269 3.0 5.0 0.00 0.35 0.02 44 1020.2
20260506160534 61 257 4.0 7.0 0.00 0.35 0.02 45 1020.1
20260506155524 61 337 4.0 8.0 0.00 0.35 0.02 46 1020.1
20260506154531 60 329 5.0 7.0 0.00 0.35 0.02 42 1020.0
20260506153521 60 323 4.0 6.0 0.00 0.35 0.02 48 1020.0
20260506152545 60 126 4.0 8.0 0.00 0.35 0.02 49 1020.0
20260506151531 59 294 6.0 10.0 0.00 0.36 0.02 50 1020.0
20260506150541 59 311 4.0 7.0 0.00 0.37 0.02 50 1020.1
20260506145526 59 291 4.0 7.0 0.00 0.38 0.02 51 1020.1
20260506144523 58 267 4.0 6.0 0.00 0.38 0.02 53 1020.1